This is the latest recevied weather packets stored in our database for station/object WA4IKQ. If no packets are shown the sender has not sent any weather packets the latest 10 day(s).
| Time | Temp. | Humidity | Pressure | Rain* | Wind** | Luminosity | Snow |
|---|---|---|---|---|---|---|---|
| 1778182912 | 36.11° C | 31% | 1013.3 hPa | 0 mm | 1.79 m/s, 195° | - | - |
| 1778182878 | 36.11° C | 31% | 1013.3 hPa | 0 mm | 1.79 m/s, 195° | - | - |
| 1778182641 | 36.11° C | 31% | 1013.3 hPa | 0 mm | 1.79 m/s, 150° | - | - |
| 1778182576 | 36.11° C | 31% | 1013.3 hPa | 0 mm | 1.79 m/s, 150° | - | - |
| 1778182348 | 36.11° C | 31% | 1013.4 hPa | 0 mm | 0.89 m/s, 232° | - | - |
| 1778182276 | 36.11° C | 31% | 1013.4 hPa | 0 mm | 0.89 m/s, 232° | - | - |
| 1778181782 | 36.11° C | 32% | 1013.5 hPa | 0 mm | 2.68 m/s, 193° | - | - |
| 1778181741 | 36.11° C | 32% | 1013.5 hPa | 0 mm | 2.68 m/s, 193° | - | - |
| 1778181692 | 36.11° C | 32% | 1013.5 hPa | 0 mm | 2.68 m/s, 193° | - | - |
| 1778181426 | 36.11° C | 32% | 1013.5 hPa | 0 mm | 2.24 m/s, 198° | - | - |
| 1778181377 | 36.11° C | 32% | 1013.5 hPa | 0 mm | 2.24 m/s, 198° | - | - |
| 1778181135 | 36.11° C | 31% | 1013.6 hPa | 0 mm | 1.79 m/s, 194° | - | - |
| 1778181078 | 36.11° C | 31% | 1013.6 hPa | 0 mm | 1.79 m/s, 194° | - | - |
| 1778180856 | 36.11° C | 30% | 1013.6 hPa | 0 mm | 1.34 m/s, 236° | - | - |
| 1778180241 | 35.56° C | 31% | 1013.8 hPa | 0 mm | 4.02 m/s, 222° | - | - |
| 1778179911 | 35.56° C | 31% | 1013.9 hPa | 0 mm | 0.89 m/s, 194° | - | - |
| 1778179876 | 35.56° C | 31% | 1013.9 hPa | 0 mm | 0.89 m/s, 194° | - | - |
| 1778179623 | 35.56° C | 30% | 1014 hPa | 0 mm | 0.89 m/s, 141° | - | - |
| 1778179576 | 35.56° C | 30% | 1014 hPa | 0 mm | 0.89 m/s, 141° | - | - |
| 1778179374 | 35.56° C | 30% | 1014.1 hPa | 0 mm | 3.13 m/s, 138° | - | - |
| 1778179340 | 35.56° C | 30% | 1014.1 hPa | 0 mm | 3.13 m/s, 138° | - | - |
| 1778179277 | 35.56° C | 30% | 1014.1 hPa | 0 mm | 3.13 m/s, 138° | - | - |
| 1778179077 | 35.56° C | 32% | 1014.2 hPa | 0 mm | 2.24 m/s, 195° | - | - |
| 1778178977 | 35.56° C | 32% | 1014.2 hPa | 0 mm | 2.24 m/s, 195° | - | - |
| 1778178783 | 35.56° C | 32% | 1014.4 hPa | 0 mm | 3.13 m/s, 165° | - | - |
* Rain latest hour (hover to see other rain measurements)
** Current wind speed in m/s (hover to see current wind gust speed)